Regional Weather Roundup
Issued by NWS

Home | Current Version | Previous Version | Graphics & Text | Print | Product List | Glossary On
Versions: 1 2 3 4 5 6 7 8 9 10 11 12 13 14 15 16 17 18 19 20 21 22 23 24 25 26 27 28 29 30 31 32 33 34 35 36 37 38 39 40 41 42 43 44 45 46 47 48 49 50
000
ASUS43 KFSD 032102
RWRSD

WEATHER ROUNDUP FOR SOUTH DAKOTA
NATIONAL WEATHER SERVICE SIOUX FALLS SD
400 PM CDT THU SEP 03 2015

NOTE: "FAIR" INDICATES FEW OR NO CLOUDS BELOW 12,000 FEET WITH NO
SIGNIFICANT WEATHER AND/OR OBSTRUCTIONS TO VISIBILITY.


SDZ001>005-009-010-012>017-032200-
NORTHWEST AND NORTH CENTRAL SOUTH DAKOTA

CITY           SKY/WX    TMP DP  RH WIND       PRES   REMARKS
BUFFALO          N/A     84  47  27 N6        29.71F
MOBRIDGE       MOSUNNY   97  60  29 S18G25    29.66F HX  97
$$

SDZ012>016-024>037-041>051-057-063-072>074-032200-
SOUTHWEST AND SOUTH CENTRAL SOUTH DAKOTA

CITY           SKY/WX    TMP DP  RH WIND       PRES   REMARKS
RAPID CTY ARPT PTSUNNY   96  49  20 S10G22    29.74F
PIERRE         MOSUNNY   98  55  23 SE22      29.68F HX  96
CUSTER         PTSUNNY   86  34  15 S9        29.96S
ELLSWORTH AFB  PTSUNNY   96  48  19 VRB7G17   29.75
PHILIP         PTSUNNY   99  59  26 S10       29.68F HX  99
PINE RIDGE     CLOUDY    95  47  19 VRB6      29.79F
WINNER         FAIR     100  49  17 SE18      29.73F HX  97
$$

SDZ004>011-016>023-039-040-032200-
NORTHEAST SOUTH DAKOTA

CITY           SKY/WX    TMP DP  RH WIND       PRES   REMARKS
ABERDEEN       SUNNY     93  69  45 S18       29.73F HX  98
WATERTOWN      SUNNY     90  71  53 S12       29.80F HX  96
BROOKINGS      SUNNY     88  70  55 SE14G20   29.82F
$$

SDZ017-020-022-023-036>040-048>070-032200-
SOUTHEAST SOUTH DAKOTA

CITY           SKY/WX    TMP DP  RH WIND       PRES   REMARKS
SIOUX FALLS    MOSUNNY   86  70  58 SE12      29.79F
HURON          SUNNY     91  70  49 SE15      29.73F HX  96
CHAMBERLAIN    SUNNY     91  70  50 SE8       29.73F HX  95
MITCHELL       SUNNY     91  72  53 SE16      29.75F HX  98
YANKTON        SUNNY     88  73  62 SE14      29.75F HX  96
$$

ABBREVIATIONS USED IN REMARKS
   TC - TEMPERATURE IN CELSIUS
  WCI - WIND CHILL INDEX
   HX - HEAT INDEX
  VSB - VISIBILITY



USA.gov is the U.S. government's official web portal to all federal, state and local government web resources and services.